When you browse on this site, cookies collect data to enhance your experience and personalize the content and advertising you see.
Visit our Privacy Policy to learn more. By continuing to use the site, you agree to this use of cookies and data.
  • In Hungary
  • List of Countries
  • For 7 days
  • Water Temperature
  • Weather Map
  • News
  • Weather Widgets
  • user-avatar
    Login

    Hourly Weather Devanhalli

    Today, 18 August, Sunday

    Time Temperature Precipitation Wind Pressure Humidity
    00:00 +23°C° 0.1 mm 4 mps 682 mmHg 85%
    01:00 +22°C° 0.1 mm 4 mps 682 mmHg 87%
    02:00 +22°C° 0.1 mm 4 mps 682 mmHg 88%
    03:00 +22°C° 0.1 mm 4 mps 682 mmHg 88%
    04:00 +22°C° 0.1 mm 4 mps 682 mmHg 89%
    05:00 +22°C° 0.1 mm 4 mps 681 mmHg 89%
    06:00 +22°C° 0.1 mm 4 mps 682 mmHg 86%
    07:00 +23°C° 0.1 mm 4 mps 683 mmHg 84%
    08:00 +23°C° 0.1 mm 5 mps 683 mmHg 81%
    09:00 +25°C° 0.4 mm 5 mps 683 mmHg 79%
    10:00 +26°C° 0.4 mm 5 mps 683 mmHg 76%
    11:00 +26°C° 0.4 mm 5 mps 683 mmHg 74%
    12:00 +27°C° 1 mm 5 mps 683 mmHg 72%
    13:00 +27°C° 1 mm 5 mps 682 mmHg 70%
    14:00 +28°C° 1 mm 5 mps 682 mmHg 68%
    15:00 +27°C° 1.1 mm 4 mps 681 mmHg 71%
    16:00 +27°C° 1.1 mm 4 mps 681 mmHg 74%
    17:00 +26°C° 1.1 mm 3 mps 681 mmHg 77%
    18:00 +26°C° 1.4 mm 3 mps 682 mmHg 79%
    19:00 +25°C° 1.4 mm 4 mps 682 mmHg 81%
    20:00 +23°C° 1.4 mm 4 mps 683 mmHg 83%
    21:00 +23°C° 0.9 mm 4 mps 683 mmHg 85%
    22:00 +23°C° 0.9 mm 4 mps 683 mmHg 87%
    23:00 +22°C° 0.9 mm 4 mps 683 mmHg 88%

    Tomorrow, 19 August, Monday

    Time Temperature Precipitation Wind Pressure Humidity
    00:00 +22°C° 1.1 mm 4 mps 683 mmHg 89%
    01:00 +22°C° 1.1 mm 4 mps 683 mmHg 90%
    02:00 +22°C° 1.1 mm 4 mps 682 mmHg 91%
    03:00 +22°C° 0.6 mm 4 mps 682 mmHg 91%
    04:00 +22°C° 0.6 mm 4 mps 682 mmHg 92%
    05:00 +21°C° 0.6 mm 4 mps 682 mmHg 92%
    06:00 +21°C° 0.7 mm 3 mps 683 mmHg 92%
    07:00 +21°C° 0.7 mm 3 mps 683 mmHg 92%
    08:00 +21°C° 0.7 mm 3 mps 684 mmHg 92%
    09:00 +22°C° 0.4 mm 3 mps 684 mmHg 90%
    10:00 +22°C° 0.4 mm 3 mps 684 mmHg 87%
    11:00 +24°C° 0.4 mm 3 mps 684 mmHg 85%
    12:00 +25°C° 0 mm 3 mps 683 mmHg 80%
    13:00 +26°C° 0 mm 3 mps 683 mmHg 75%
    14:00 +27°C° 0 mm 4 mps 682 mmHg 70%
    15:00 +27°C° 0.3 mm 3 mps 682 mmHg 70%
    16:00 +27°C° 0.3 mm 3 mps 682 mmHg 70%
    17:00 +27°C° 0.3 mm 3 mps 682 mmHg 69%
    18:00 +27°C° 0.9 mm 3 mps 682 mmHg 73%
    19:00 +26°C° 0.9 mm 3 mps 682 mmHg 77%
    20:00 +25°C° 0.9 mm 3 mps 683 mmHg 81%
    21:00 +25°C° 0.7 mm 3 mps 683 mmHg 82%
    22:00 +23°C° 0.7 mm 4 mps 683 mmHg 83%
    23:00 +23°C° 0.7 mm 4 mps 683 mmHg 84%

    Day after tomorrow, 20 August, Tuesday

    Time Temperature Precipitation Wind Pressure Humidity
    00:00 +23°C° 0.1 mm 4 mps 683 mmHg 85%
    01:00 +22°C° 0.1 mm 4 mps 682 mmHg 86%
    02:00 +22°C° 0.1 mm 4 mps 682 mmHg 88%
    03:00 +22°C° 0.1 mm 4 mps 682 mmHg 88%
    04:00 +22°C° 0.1 mm 4 mps 682 mmHg 89%
    05:00 +22°C° 0.1 mm 4 mps 682 mmHg 89%
    06:00 +22°C° 0 mm 4 mps 682 mmHg 87%
    07:00 +23°C° 0 mm 5 mps 683 mmHg 85%
    08:00 +23°C° 0 mm 5 mps 684 mmHg 83%
    09:00 +25°C° 0.1 mm 5 mps 684 mmHg 78%
    10:00 +26°C° 0.1 mm 5 mps 684 mmHg 74%
    11:00 +27°C° 0.1 mm 6 mps 684 mmHg 69%
    12:00 +28°C° 0.6 mm 6 mps 683 mmHg 68%
    13:00 +28°C° 0.6 mm 6 mps 683 mmHg 67%
    14:00 +28°C° 0.6 mm 6 mps 682 mmHg 66%
    15:00 +28°C° 0.3 mm 5 mps 682 mmHg 66%
    16:00 +28°C° 0.3 mm 5 mps 681 mmHg 67%
    17:00 +27°C° 0.3 mm 5 mps 681 mmHg 68%
    18:00 +26°C° 0.3 mm 5 mps 682 mmHg 72%
    19:00 +26°C° 0.3 mm 5 mps 682 mmHg 76%
    20:00 +25°C° 0.3 mm 4 mps 683 mmHg 79%
    21:00 +25°C° 0.2 mm 5 mps 683 mmHg 81%
    22:00 +23°C° 0.2 mm 5 mps 683 mmHg 83%
    23:00 +23°C° 0.2 mm 5 mps 683 mmHg 85%

    21 August, Wednesday

    Time Temperature Precipitation Wind Pressure Humidity
    00:00 +22°C° 0.5 mm 5 mps 682 mmHg 87%
    01:00 +22°C° 0.5 mm 6 mps 682 mmHg 88%
    02:00 +22°C° 0.5 mm 6 mps 681 mmHg 90%
    03:00 +22°C° 0.5 mm 6 mps 681 mmHg 89%
    04:00 +22°C° 0.5 mm 6 mps 681 mmHg 89%
    05:00 +22°C° 0.5 mm 5 mps 681 mmHg 89%
    06:00 +22°C° 0.1 mm 5 mps 682 mmHg 88%
    07:00 +22°C° 0.1 mm 5 mps 682 mmHg 88%
    08:00 +22°C° 0.1 mm 5 mps 683 mmHg 87%
    09:00 +23°C° 0.1 mm 6 mps 683 mmHg 82%
    10:00 +24°C° 0.1 mm 6 mps 683 mmHg 78%
    11:00 +26°C° 0.1 mm 6 mps 683 mmHg 73%
    12:00 +27°C° 0.6 mm 6 mps 682 mmHg 70%
    13:00 +28°C° 0.6 mm 7 mps 682 mmHg 68%
    14:00 +28°C° 0.6 mm 7 mps 681 mmHg 65%
    15:00 +28°C° 1.1 mm 7 mps 681 mmHg 67%
    16:00 +27°C° 1.1 mm 6 mps 681 mmHg 70%
    17:00 +27°C° 1.1 mm 6 mps 681 mmHg 72%
    18:00 +26°C° 1.2 mm 6 mps 681 mmHg 76%
    19:00 +24°C° 1.2 mm 6 mps 682 mmHg 79%
    20:00 +23°C° 1.2 mm 6 mps 682 mmHg 83%
    21:00 +23°C° 0.4 mm 6 mps 683 mmHg 84%
    22:00 +23°C° 0.4 mm 6 mps 683 mmHg 84%
    23:00 +22°C° 0.4 mm 6 mps 683 mmHg 85%

    22 August, Thursday

    Time Temperature Precipitation Wind Pressure Humidity
    00:00 +22°C° 0 mm 6 mps 682 mmHg 85%
    01:00 +22°C° 0 mm 6 mps 682 mmHg 86%
    02:00 +22°C° 0 mm 6 mps 681 mmHg 87%
    03:00 +21°C° 0 mm 6 mps 681 mmHg 87%
    04:00 +21°C° 0 mm 6 mps 681 mmHg 87%
    05:00 +21°C° 0 mm 5 mps 681 mmHg 88%
    06:00 +22°C° 0 mm 6 mps 682 mmHg 85%
    07:00 +22°C° 0 mm 6 mps 682 mmHg 82%
    08:00 +23°C° 0 mm 6 mps 683 mmHg 79%
    09:00 +24°C° 0 mm 6 mps 683 mmHg 75%
    10:00 +26°C° 0 mm 6 mps 682 mmHg 72%
    11:00 +27°C° 0 mm 7 mps 682 mmHg 68%
    12:00 +27°C° 0.2 mm 6 mps 682 mmHg 66%
    13:00 +28°C° 0.2 mm 6 mps 681 mmHg 64%
    14:00 +29°C° 0.2 mm 6 mps 681 mmHg 61%
    15:00 +28°C° 1 mm 6 mps 681 mmHg 64%
    16:00 +27°C° 1 mm 6 mps 680 mmHg 66%
    17:00 +27°C° 1 mm 6 mps 680 mmHg 69%
    18:00 +26°C° 0.4 mm 6 mps 681 mmHg 73%
    19:00 +25°C° 0.4 mm 5 mps 681 mmHg 76%
    20:00 +23°C° 0.4 mm 5 mps 682 mmHg 80%
    21:00 +23°C° 0 mm 5 mps 682 mmHg 82%
    22:00 +22°C° 0 mm 5 mps 682 mmHg 83%
    23:00 +22°C° 0 mm 6 mps 682 mmHg 85%

    23 August, Friday

    Time Temperature Precipitation Wind Pressure Humidity
    00:00 +21°C° 0 mm 6 mps 682 mmHg 86%
    01:00 +21°C° 0 mm 6 mps 681 mmHg 87%
    02:00 +21°C° 0 mm 6 mps 681 mmHg 87%
    03:00 +21°C° 0 mm 6 mps 681 mmHg 88%
    04:00 +21°C° 0 mm 5 mps 681 mmHg 88%
    05:00 +20°C° 0 mm 5 mps 681 mmHg 88%
    06:00 +21°C° 0 mm 6 mps 681 mmHg 85%
    07:00 +22°C° 0 mm 6 mps 682 mmHg 82%
    08:00 +23°C° 0 mm 6 mps 682 mmHg 78%
    09:00 +24°C° 0 mm 7 mps 683 mmHg 74%
    10:00 +26°C° 0 mm 7 mps 683 mmHg 70%
    11:00 +27°C° 0 mm 7 mps 683 mmHg 66%
    12:00 +28°C° 0 mm 7 mps 682 mmHg 63%
    13:00 +29°C° 0 mm 6 mps 681 mmHg 60%
    14:00 +29°C° 0 mm 6 mps 681 mmHg 58%
    15:00 +29°C° 0.6 mm 6 mps 681 mmHg 61%
    16:00 +28°C° 0.6 mm 6 mps 681 mmHg 65%
    17:00 +27°C° 0.6 mm 5 mps 680 mmHg 68%
    18:00 +26°C° 1.6 mm 5 mps 681 mmHg 72%
    19:00 +25°C° 1.6 mm 5 mps 682 mmHg 76%
    20:00 +25°C° 1.6 mm 5 mps 682 mmHg 80%
    21:00 +23°C° 0.2 mm 5 mps 682 mmHg 82%
    22:00 +23°C° 0.2 mm 5 mps 683 mmHg 83%
    23:00 +22°C° 0.2 mm 5 mps 683 mmHg 85%
    Show more